When you browse on this site, cookies collect data to enhance your experience and personalize the content and advertising you see.
Visit our Privacy Policy to learn more. By continuing to use the site, you agree to this use of cookies and data.
  • în România
  • Lista ţărilor
  • Pe 7 zile
  • Temperatura apei
  • Hartă satelitară
  • Meteo pe hartă
  • Widget-uri
  • user-avatar
    Intrare

    Meteo pe oră la Senaki

    Astăzi, 26 Martie, Marţi

    Timp Temperatura Precipitaţii Vânt Presiune Umiditate
    00:00 +5°C° 0 mm 1 m/s 759 mmHg 82%
    01:00 +5°C° 0 mm 1 m/s 759 mmHg 81%
    02:00 +5°C° 0 mm 1 m/s 759 mmHg 81%
    03:00 +4°C° 0 mm 0 m/s 758 mmHg 79%
    04:00 +5°C° 0 mm 1 m/s 759 mmHg 77%
    05:00 +5°C° 0 mm 1 m/s 759 mmHg 75%
    06:00 +5°C° 0 mm 1 m/s 759 mmHg 73%
    07:00 +7°C° 0 mm 1 m/s 758 mmHg 67%
    08:00 +10°C° 0 mm 1 m/s 758 mmHg 60%
    09:00 +12°C° 0 mm 1 m/s 757 mmHg 54%
    10:00 +14°C° 0 mm 1 m/s 757 mmHg 51%
    11:00 +15°C° 0 mm 1 m/s 757 mmHg 48%
    12:00 +18°C° 0 mm 1 m/s 756 mmHg 45%
    13:00 +17°C° 0 mm 2 m/s 756 mmHg 46%
    14:00 +17°C° 0 mm 2 m/s 756 mmHg 47%
    15:00 +17°C° 0 mm 2 m/s 756 mmHg 49%
    16:00 +15°C° 0 mm 2 m/s 756 mmHg 56%
    17:00 +14°C° 0 mm 2 m/s 756 mmHg 63%
    18:00 +12°C° 0 mm 2 m/s 756 mmHg 71%
    19:00 +11°C° 0 mm 1 m/s 757 mmHg 73%
    20:00 +10°C° 0 mm 1 m/s 757 mmHg 76%
    21:00 +8°C° 0 mm 0 m/s 758 mmHg 79%
    22:00 +8°C° 0 mm 0 m/s 758 mmHg 78%
    23:00 +9°C° 0 mm 1 m/s 758 mmHg 78%

    Mâine, 27 Martie, Miercuri

    Timp Temperatura Precipitaţii Vânt Presiune Umiditate
    00:00 +9°C° 0 mm 1 m/s 758 mmHg 77%
    01:00 +9°C° 0 mm 1 m/s 758 mmHg 76%
    02:00 +9°C° 0 mm 1 m/s 758 mmHg 75%
    03:00 +8°C° 0 mm 1 m/s 758 mmHg 74%
    04:00 +8°C° 0 mm 1 m/s 758 mmHg 73%
    05:00 +8°C° 0 mm 1 m/s 758 mmHg 72%
    06:00 +8°C° 0 mm 1 m/s 759 mmHg 70%
    07:00 +10°C° 0 mm 1 m/s 758 mmHg 64%
    08:00 +12°C° 0 mm 1 m/s 758 mmHg 59%
    09:00 +14°C° 0 mm 1 m/s 758 mmHg 53%
    10:00 +16°C° 0 mm 1 m/s 758 mmHg 49%
    11:00 +18°C° 0 mm 1 m/s 758 mmHg 46%
    12:00 +20°C° 0 mm 1 m/s 758 mmHg 42%
    13:00 +18°C° 0 mm 2 m/s 758 mmHg 44%
    14:00 +18°C° 0 mm 3 m/s 758 mmHg 45%
    15:00 +18°C° 0 mm 3 m/s 758 mmHg 46%
    16:00 +16°C° 0 mm 3 m/s 758 mmHg 54%
    17:00 +14°C° 0 mm 3 m/s 759 mmHg 61%
    18:00 +12°C° 0 mm 3 m/s 759 mmHg 69%
    19:00 +12°C° 0 mm 2 m/s 760 mmHg 74%
    20:00 +10°C° 0 mm 2 m/s 761 mmHg 80%
    21:00 +9°C° 0 mm 2 m/s 762 mmHg 86%
    22:00 +9°C° 0 mm 1 m/s 763 mmHg 87%
    23:00 +9°C° 0 mm 1 m/s 763 mmHg 89%

    Poimâine, 28 Martie, Joi

    Timp Temperatura Precipitaţii Vânt Presiune Umiditate
    00:00 +9°C° 0 mm 1 m/s 763 mmHg 90%
    01:00 +9°C° 0 mm 1 m/s 763 mmHg 91%
    02:00 +8°C° 0 mm 1 m/s 763 mmHg 92%
    03:00 +7°C° 0 mm 2 m/s 763 mmHg 93%
    04:00 +8°C° 0 mm 1 m/s 764 mmHg 92%
    05:00 +8°C° 0 mm 1 m/s 764 mmHg 92%
    06:00 +8°C° 0 mm 1 m/s 764 mmHg 92%
    07:00 +8°C° 0.1 mm 1 m/s 764 mmHg 88%
    08:00 +8°C° 0.1 mm 2 m/s 764 mmHg 84%
    09:00 +9°C° 0.1 mm 2 m/s 764 mmHg 80%
    10:00 +9°C° 0.1 mm 2 m/s 764 mmHg 79%
    11:00 +9°C° 0.1 mm 3 m/s 764 mmHg 79%
    12:00 +10°C° 0.1 mm 3 m/s 763 mmHg 78%
    13:00 +10°C° 0.1 mm 4 m/s 763 mmHg 77%
    14:00 +10°C° 0.1 mm 4 m/s 763 mmHg 76%
    15:00 +11°C° 0.1 mm 4 m/s 763 mmHg 76%
    16:00 +10°C° 0.1 mm 4 m/s 763 mmHg 79%
    17:00 +8°C° 0.1 mm 4 m/s 763 mmHg 82%
    18:00 +8°C° 0.1 mm 3 m/s 764 mmHg 85%
    19:00 +8°C° 0.1 mm 3 m/s 764 mmHg 87%
    20:00 +7°C° 0.1 mm 2 m/s 764 mmHg 90%
    21:00 +7°C° 0.1 mm 2 m/s 765 mmHg 92%
    22:00 +7°C° 0.3 mm 2 m/s 765 mmHg 92%
    23:00 +7°C° 0.3 mm 1 m/s 765 mmHg 93%

    29 Martie, Vineri

    Timp Temperatura Precipitaţii Vânt Presiune Umiditate
    00:00 +7°C° 0.3 mm 1 m/s 765 mmHg 93%
    01:00 +7°C° 0.3 mm 1 m/s 765 mmHg 93%
    02:00 +7°C° 0.3 mm 1 m/s 764 mmHg 93%
    03:00 +7°C° 0.3 mm 1 m/s 764 mmHg 93%
    04:00 +7°C° 0.3 mm 1 m/s 764 mmHg 92%
    05:00 +7°C° 0.3 mm 1 m/s 764 mmHg 92%
    06:00 +6°C° 0.3 mm 1 m/s 764 mmHg 92%
    07:00 +7°C° 0.2 mm 1 m/s 764 mmHg 89%
    08:00 +8°C° 0.2 mm 1 m/s 764 mmHg 86%
    09:00 +8°C° 0.2 mm 1 m/s 764 mmHg 83%
    10:00 +8°C° 0.2 mm 2 m/s 764 mmHg 81%
    11:00 +8°C° 0.2 mm 2 m/s 764 mmHg 78%
    12:00 +9°C° 0.2 mm 3 m/s 764 mmHg 75%
    13:00 +9°C° 0.1 mm 3 m/s 764 mmHg 73%
    14:00 +10°C° 0.1 mm 3 m/s 763 mmHg 71%
    15:00 +10°C° 0.1 mm 3 m/s 763 mmHg 68%
    16:00 +9°C° 0 mm 3 m/s 764 mmHg 70%
    17:00 +8°C° 0 mm 3 m/s 764 mmHg 72%
    18:00 +8°C° 0 mm 2 m/s 764 mmHg 74%
    19:00 +7°C° 0 mm 2 m/s 765 mmHg 77%
    20:00 +7°C° 0 mm 1 m/s 765 mmHg 80%
    21:00 +5°C° 0 mm 0 m/s 765 mmHg 83%
    22:00 +5°C° 0 mm 0 m/s 765 mmHg 84%
    23:00 +6°C° 0 mm 1 m/s 765 mmHg 85%

    30 Martie, Sâmbătă

    Timp Temperatura Precipitaţii Vânt Presiune Umiditate
    00:00 +6°C° 0 mm 1 m/s 765 mmHg 86%
    01:00 +6°C° 0 mm 1 m/s 764 mmHg 85%
    02:00 +6°C° 0 mm 1 m/s 764 mmHg 83%
    03:00 +6°C° 0 mm 1 m/s 764 mmHg 82%
    04:00 +6°C° 0 mm 1 m/s 763 mmHg 80%
    05:00 +6°C° 0 mm 1 m/s 763 mmHg 79%
    06:00 +6°C° 0 mm 1 m/s 763 mmHg 77%
    07:00 +8°C° 0 mm 1 m/s 763 mmHg 71%
    08:00 +10°C° 0 mm 1 m/s 762 mmHg 64%
    09:00 +11°C° 0 mm 1 m/s 762 mmHg 58%
    10:00 +13°C° 0 mm 1 m/s 761 mmHg 54%
    11:00 +15°C° 0 mm 1 m/s 761 mmHg 51%
    12:00 +16°C° 0 mm 2 m/s 760 mmHg 47%
    13:00 +16°C° 0 mm 2 m/s 760 mmHg 48%
    14:00 +17°C° 0 mm 2 m/s 759 mmHg 49%
    15:00 +17°C° 0 mm 2 m/s 758 mmHg 50%
    16:00 +16°C° 0 mm 2 m/s 758 mmHg 55%
    17:00 +15°C° 0 mm 2 m/s 758 mmHg 61%
    18:00 +13°C° 0 mm 2 m/s 758 mmHg 66%
    19:00 +13°C° 0 mm 2 m/s 759 mmHg 66%
    20:00 +12°C° 0 mm 2 m/s 759 mmHg 67%
    21:00 +10°C° 0 mm 2 m/s 759 mmHg 67%
    22:00 +10°C° 0 mm 2 m/s 759 mmHg 65%
    23:00 +11°C° 0 mm 3 m/s 759 mmHg 63%

    31 Martie, Duminică

    Timp Temperatura Precipitaţii Vânt Presiune Umiditate
    00:00 +11°C° 0 mm 3 m/s 758 mmHg 60%
    01:00 +11°C° 0 mm 3 m/s 758 mmHg 61%
    02:00 +11°C° 0 mm 3 m/s 758 mmHg 61%
    03:00 +11°C° 0 mm 3 m/s 757 mmHg 62%
    04:00 +11°C° 0 mm 3 m/s 757 mmHg 62%
    05:00 +11°C° 0 mm 3 m/s 757 mmHg 61%
    06:00 +11°C° 0 mm 3 m/s 757 mmHg 61%
    07:00 +13°C° 0 mm 4 m/s 757 mmHg 58%
    08:00 +14°C° 0 mm 5 m/s 756 mmHg 54%
    09:00 +16°C° 0 mm 6 m/s 756 mmHg 51%
    10:00 +17°C° 0 mm 6 m/s 756 mmHg 49%
    11:00 +19°C° 0 mm 6 m/s 755 mmHg 47%
    12:00 +20°C° 0 mm 7 m/s 755 mmHg 45%
    13:00 +20°C° 0 mm 6 m/s 754 mmHg 45%
    14:00 +20°C° 0 mm 5 m/s 754 mmHg 45%
    15:00 +20°C° 0 mm 4 m/s 753 mmHg 45%
    16:00 +19°C° 0 mm 4 m/s 753 mmHg 51%
    17:00 +17°C° 0 mm 3 m/s 753 mmHg 58%
    18:00 +16°C° 0 mm 2 m/s 754 mmHg 64%
    19:00 +14°C° 0 mm 2 m/s 754 mmHg 67%
    20:00 +13°C° 0 mm 1 m/s 754 mmHg 69%
    21:00 +12°C° 0 mm 1 m/s 754 mmHg 71%
    22:00 +12°C° 0 mm 1 m/s 754 mmHg 72%
    23:00 +12°C° 0 mm 1 m/s 754 mmHg 73%
    Arată mai mult